Weather in Nevskaya

Russia / Novgorod Oblast     58°19′30″N   32°19′21″E
temp.,
°C
wind,
m/s
gust,
m/s
humid.,
%
clouds,
%
prec.,
mm/h
press.,
hPa
HPBL,
m
19 january, tue
tue1900:00−14s229774 0.0 101821
03:00−14s129779 0.1 101820
06:00−14s229896 0.0 101723
09:00−14s229896 0.1 101729
12:00−11ssw239599 0.0 1017169
15:00−10ssw239598 0.1 1017207
18:00−13ssw239793 0.0 101741
21:00−13ssw239781 0.1 101751
20 january, wed
wed2000:00−14ssw239760 0.0 101764
03:00−14ssw239630 0.0 101844
06:00−15ssw23960 0.0 101871
09:00−15ssw23960 0.0 101861
12:00−12ssw25900 0.0 1018236
15:00−11s36901 0.0 1017277
18:00−13sse38940 0.0 1017189
21:00−12sse4109050 0.0 1015292
21 january, thu
thu2100:00−11sse51181100 0.0 1012432
03:00−9sse51393100 0.4 1009576
06:00−7s51294100 2.0 1006688
09:00−7ssw51294100 3.5 1004601
12:00−5ssw51293100 1.5 1003509
15:00−3ssw51294100 2.0 1001432
18:000ssw51395100 1.4 1000487
21:00+2sw51297100 3.3 1001448
22 january, fri
fri2200:00+1ssw41196100 0.7 1001540
03:00+1sw41293100 0.7 1002553
06:00−1ssw31095100 0.0 1002307
09:000ssw4897100 0.0 1002424
12:00+1ssw4996100 0.0 1002651
15:00+1s3995100 0.0 1002493
18:000s4998100 0.0 1002410
21:00+1ssw3998100 0.1 1002399
23 january, sat
sat2300:00+1ssw31096100 0.0 1002394
03:00+1s3996100 0.0 1002412
06:00+1s3896100 0.0 1001278
09:00+1sse3898100 0.4 1000287
12:00+2s4998100 0.9 1000352
15:00+2ssw4998100 1.3 1000342
18:00+1s3799100 0.4 1000235
21:00+1wsw3899100 1.9 1001262